Weather History for Monarch Pass, CO

Change the Weather History Date:

Thursday, June 20, 2013

  Actual Average (KGUC) Record (KGUC)
Temperature  
Mean Temperature 54 °F -  
Max Temperature 64 °F 73 °F 82 °F (2002)
Min Temperature 44 °F 38 °F 32 °F (2014)
Degree Days  
Heating Degree Days 11    
Growing Degree Days 4 (Base 50)    
Moisture  
Dew Point 9 °F    
Average Humidity 17    
Maximum Humidity 23    
Minimum Humidity 13    
Precipitation  
Precipitation 0.00 in - - ()
Sea Level Pressure  
Sea Level Pressure 30.51 in    
Wind  
Wind Speed 24 mph (WSW)    
Max Wind Speed 37 mph    
Max Gust Speed 47 mph    
Visibility 10 miles    
Events      
Averages and records for this station are not official NWS values.
T = Trace of Precipitation, MM = Missing Value Source: NWS Daily Summary

Daily Weather History Graph

Daily Weather History Graph

Search for Another Location

Airport:

Trip Planner

Search our weather history database for the weather conditions in past years. The results will help you decide how hot, cold, wet, or windy it might be!

Date:

Astronomy

Jun. 20, 2013 Rise Set
Actual Time 5:41 AM MDT 8:32 PM MDT
Civil Twilight 5:09 AM MDT 9:04 PM MDT
Nautical Twilight 4:29 AM MDT 9:44 PM MDT
Astronomical Twilight 3:43 AM MDT 10:30 PM MDT
Moon 5:39 PM MDT (6/20) 3:08 AM MDT (6/20)
Length of Visible Light 15h 54m
Length of Day
14h 51m
Waxing Gibbous, 89% of the Moon is Illuminated
Jun 20
Waxing Gibbous
Jun 23
Full
Jun 29
Last Quarter
Jul 8
New
Jul 15
First Quarter

Hourly Weather History & Observations

Time (MDT) Temp. Windchill Dew Point Humidity Pressure Visibility Wind Dir Wind Speed Gust Speed Precip Events Conditions
12:14 AM 50.0 °F - 3.2 °F 15% 30.48 in 10.0 mi WSW 26.5 mph - N/A   Clear
12:34 AM 50.0 °F - 3.2 °F 15% 30.48 in 10.0 mi SW 26.5 mph - N/A   Clear
12:54 AM 50.0 °F - 1.4 °F 14% 30.48 in 10.0 mi WSW 28.8 mph - N/A   Clear
1:14 AM 50.0 °F - 1.4 °F 14% 30.47 in 10.0 mi SW 28.8 mph - N/A   Clear
1:34 AM 50.0 °F - -0.4 °F 13% 30.47 in 10.0 mi WSW 32.2 mph 36.8 mph N/A   Clear
1:54 AM 48.2 °F - 1.4 °F 15% 30.47 in 10.0 mi WSW 27.6 mph - N/A   Clear
2:14 AM 48.2 °F - 1.4 °F 15% 30.46 in 10.0 mi West 25.3 mph - N/A   Clear
2:34 AM 48.2 °F - 1.4 °F 15% 30.46 in 10.0 mi West 27.6 mph - N/A   Clear
2:54 AM 46.4 °F 37.9 °F 1.4 °F 16% 30.46 in 10.0 mi West 25.3 mph - N/A   Clear
3:14 AM 46.4 °F 38.1 °F 1.4 °F 16% 30.46 in 10.0 mi WSW 24.2 mph 28.8 mph N/A   Clear
3:34 AM 46.4 °F 37.9 °F 1.4 °F 16% 30.46 in 10.0 mi WSW 25.3 mph 32.2 mph N/A   Clear
3:54 AM 46.4 °F 37.7 °F 1.4 °F 16% 30.46 in 10.0 mi WSW 26.5 mph - N/A   Clear
4:14 AM 46.4 °F 37.5 °F 1.4 °F 16% 30.46 in 10.0 mi WSW 27.6 mph - N/A   Clear
4:34 AM 46.4 °F 37.9 °F 1.4 °F 16% 30.46 in 10.0 mi WSW 25.3 mph - N/A   Clear
4:54 AM 44.6 °F 35.3 °F 1.4 °F 17% 30.46 in 10.0 mi WSW 26.5 mph - N/A   Clear
5:14 AM 44.6 °F 35.9 °F 3.2 °F 18% 30.47 in 10.0 mi WSW 23.0 mph - N/A   Clear
5:34 AM 44.6 °F 35.5 °F 3.2 °F 18% 30.47 in 10.0 mi WSW 25.3 mph - N/A   Clear
5:54 AM 44.6 °F 35.5 °F 5.0 °F 20% 30.47 in 10.0 mi WSW 25.3 mph - N/A   Clear
6:14 AM 44.6 °F 36.4 °F 5.0 °F 20% 30.48 in 10.0 mi WSW 20.7 mph - N/A   Clear
6:34 AM 44.6 °F 36.1 °F 5.0 °F 20% 30.48 in 10.0 mi WSW 21.9 mph - N/A   Clear
6:54 AM 44.6 °F 36.4 °F 6.8 °F 21% 30.49 in 10.0 mi WSW 20.7 mph - N/A   Clear
7:14 AM 44.6 °F 37.2 °F 8.6 °F 23% 30.49 in 10.0 mi WSW 17.3 mph - N/A   Clear
7:34 AM 44.6 °F 37.4 °F 8.6 °F 23% 30.50 in 10.0 mi WSW 16.1 mph - N/A   Clear
7:54 AM 46.4 °F 40.1 °F 8.6 °F 22% 30.51 in 10.0 mi SW 15.0 mph - N/A   Clear
8:14 AM 46.4 °F 40.1 °F 8.6 °F 22% 30.52 in 10.0 mi WSW 15.0 mph - N/A   Clear
8:34 AM 48.2 °F - 10.4 °F 22% 30.52 in 10.0 mi WSW 16.1 mph 23.0 mph N/A   Clear
8:54 AM 50.0 °F - 10.4 °F 20% 30.52 in 10.0 mi WSW 19.6 mph - N/A   Clear
9:14 AM 50.0 °F - 10.4 °F 20% 30.52 in 10.0 mi SW 24.2 mph 31.1 mph N/A   Clear
9:34 AM 50.0 °F - 10.4 °F 20% 30.52 in 10.0 mi WSW 24.2 mph 29.9 mph N/A   Clear
9:54 AM 51.8 °F - 10.4 °F 19% 30.52 in 10.0 mi WSW 19.6 mph 31.1 mph N/A   Clear
10:14 AM 51.8 °F - 10.4 °F 19% 30.52 in 10.0 mi West 21.9 mph 32.2 mph N/A   Clear
10:34 AM 53.6 °F - 10.4 °F 18% 30.53 in 10.0 mi WSW 12.7 mph 24.2 mph N/A   Clear
10:54 AM 55.4 °F - 12.2 °F 18% 30.53 in 10.0 mi SSW 9.2 mph - N/A   Clear
11:14 AM 57.2 °F - 10.4 °F 16% 30.53 in 10.0 mi South 17.3 mph 26.5 mph N/A   Clear
11:34 AM 57.2 °F - 10.4 °F 16% 30.53 in 10.0 mi SW 13.8 mph 31.1 mph N/A   Clear
11:54 AM 59.0 °F - 12.2 °F 16% 30.53 in 10.0 mi SW 20.7 mph 24.2 mph N/A   Clear
12:14 PM 59.0 °F - 10.4 °F 15% 30.53 in 10.0 mi SSW 19.6 mph 26.5 mph N/A   Clear
12:34 PM 57.2 °F - 10.4 °F 16% 30.53 in 10.0 mi South 19.6 mph 33.4 mph N/A   Clear
12:54 PM 60.8 °F - 12.2 °F 15% 30.53 in 10.0 mi SW 21.9 mph 28.8 mph N/A   Clear
1:14 PM 60.8 °F - 12.2 °F 15% 30.53 in 10.0 mi South 19.6 mph 28.8 mph N/A   Clear
1:34 PM 62.6 °F - 12.2 °F 14% 30.52 in 10.0 mi South 18.4 mph 31.1 mph N/A   Clear
1:54 PM 62.6 °F - 12.2 °F 14% 30.51 in 10.0 mi SSE 18.4 mph 27.6 mph N/A   Clear
2:14 PM 62.6 °F - 12.2 °F 14% 30.51 in 10.0 mi WSW 26.5 mph 38.0 mph N/A   Clear
2:34 PM 62.6 °F - 12.2 °F 14% 30.50 in 10.0 mi SW 28.8 mph 41.4 mph N/A   Clear
2:54 PM 64.4 °F - 12.2 °F 13% 30.51 in 10.0 mi WSW 21.9 mph 42.6 mph N/A   Clear
3:14 PM 64.4 °F - 12.2 °F 13% 30.50 in 10.0 mi West 29.9 mph 38.0 mph N/A   Clear
3:34 PM 64.4 °F - 12.2 °F 13% 30.51 in 10.0 mi WSW 23.0 mph 43.7 mph N/A   Clear
3:54 PM 62.6 °F - 14.0 °F 15% 30.51 in 10.0 mi WSW 27.6 mph 38.0 mph N/A   Scattered Clouds
4:14 PM 64.4 °F - 14.0 °F 14% 30.50 in 10.0 mi West 34.5 mph 43.7 mph N/A   Scattered Clouds
4:34 PM 62.6 °F - 14.0 °F 15% 30.50 in 10.0 mi West 36.8 mph 44.9 mph N/A   Clear
4:54 PM 62.6 °F - 14.0 °F 15% 30.50 in 10.0 mi West 29.9 mph 47.2 mph N/A   Clear
5:14 PM 64.4 °F - 15.8 °F 15% 30.50 in 10.0 mi West 32.2 mph 43.7 mph N/A   Clear
5:34 PM 62.6 °F - 17.6 °F 18% 30.51 in 10.0 mi West 31.1 mph 35.7 mph N/A   Clear
5:54 PM 62.6 °F - 15.8 °F 16% 30.51 in 10.0 mi West 29.9 mph 42.6 mph N/A   Clear
6:14 PM 60.8 °F - 17.6 °F 19% 30.51 in 10.0 mi West 26.5 mph 39.1 mph N/A   Clear
6:34 PM 60.8 °F - 15.8 °F 17% 30.52 in 10.0 mi West 29.9 mph 35.7 mph N/A   Clear
6:54 PM 60.8 °F - 15.8 °F 17% 30.52 in 10.0 mi West 25.3 mph 36.8 mph N/A   Clear
7:14 PM 55.4 °F - 14.0 °F 20% 30.53 in 10.0 mi WSW 19.6 mph 28.8 mph N/A   Clear
7:34 PM 55.4 °F - 12.2 °F 18% 30.52 in 10.0 mi WSW 26.5 mph 34.5 mph N/A   Clear
7:54 PM 55.4 °F - 12.2 °F 18% 30.53 in 10.0 mi WSW 21.9 mph 27.6 mph N/A   Clear
8:14 PM 55.4 °F - 10.4 °F 17% 30.53 in 10.0 mi WSW 32.2 mph 38.0 mph N/A   Clear
8:34 PM 53.6 °F - 10.4 °F 18% 30.54 in 10.0 mi WSW 25.3 mph - N/A   Clear
8:54 PM 53.6 °F - 12.2 °F 19% 30.54 in 10.0 mi West 23.0 mph 31.1 mph N/A   Clear
9:14 PM 51.8 °F - 12.2 °F 21% 30.55 in 10.0 mi WSW 18.4 mph 27.6 mph N/A   Clear
9:34 PM 51.8 °F - 12.2 °F 21% 30.55 in 10.0 mi SW 21.9 mph 29.9 mph N/A   Clear
9:54 PM 51.8 °F - 12.2 °F 21% 30.56 in 10.0 mi WSW 23.0 mph - N/A   Clear
10:14 PM 51.8 °F - 12.2 °F 21% 30.56 in 10.0 mi West 17.3 mph 20.7 mph N/A   Clear
10:34 PM 51.8 °F - 12.2 °F 21% 30.56 in 10.0 mi WSW 21.9 mph - N/A   Clear
10:54 PM 50.0 °F - 12.2 °F 22% 30.56 in 10.0 mi WSW 24.2 mph - N/A   Clear
11:14 PM 50.0 °F - 12.2 °F 22% 30.55 in 10.0 mi WSW 23.0 mph 26.5 mph N/A   Clear
11:34 PM 50.0 °F - 12.2 °F 22% 30.55 in 10.0 mi West 19.6 mph - N/A   Clear
11:54 PM 50.0 °F - 10.4 °F 20% 30.55 in 10.0 mi West 21.9 mph - N/A   Clear